Simultaneous Nadir Overpasses (SNOs) Predictions

Prediction of SNOs between GOES-15 and NPP Satellite Orbit:

Table of predicted SNOs for the next 14.0 days since TLE Epoch: 6/23/2014
Index Date Time (GOES-15) GOES-15 Lat,Lon NPP Lat,Lon Distance(km) Time Diff (sec)
1 06/23/2014 22:46:58 0.08,-135.46 -0.74,-139.10 415.38 80
2 06/24/2014 22:30:55 0.08,-135.46 0.28,-134.57 101.15 80
3 06/26/2014 10:50:04 -0.09,-135.45 0.88,-139.84 499.20 80
4 06/27/2014 10:34:01 -0.09,-135.45 -0.14,-135.31 17.15 80
5 06/29/2014 22:34:34 0.09,-135.43 -0.06,-136.07 72.69 80
6 06/30/2014 22:18:31 0.09,-135.42 0.96,-131.54 443.30 80
7 07/02/2014 10:37:40 -0.10,-135.42 0.21,-136.80 157.94 80
8 07/03/2014 10:21:37 -0.10,-135.40 -0.82,-132.27 357.70 80
9 07/04/2014 22:40:54
